This is the latest recevied weather packets stored in our database for station/object JH5EWP-13. If no packets are shown the sender has not sent any weather packets the latest 10 day(s).
| Time | Temp. | Humidity | Pressure | Rain* | Wind** | Luminosity | Snow |
|---|---|---|---|---|---|---|---|
| 1778001825 | 12.78° C | 56% | 1009.9 hPa | 0 mm | - | - | - |
| 1778000925 | 12.78° C | 55% | 1009.8 hPa | 0 mm | - | - | - |
| 1778000024 | 13.33° C | 54% | 1010 hPa | 0 mm | - | - | - |
| 1777999124 | 13.33° C | 52% | 1010.2 hPa | 0 mm | - | - | - |
| 1777998224 | 13.33° C | 53% | 1010.2 hPa | 0 mm | - | - | - |
| 1777997326 | 13.33° C | 54% | 1010.2 hPa | 0 mm | - | - | - |
| 1777996426 | 13.33° C | 53% | 1010.3 hPa | 0 mm | - | - | - |
| 1777995526 | 13.33° C | 55% | 1010.3 hPa | 0 mm | - | - | - |
| 1777994626 | 13.33° C | 54% | 1010.6 hPa | 0 mm | - | - | - |
| 1777993726 | 13.33° C | 53% | 1010.6 hPa | 0 mm | - | - | - |
| 1777992825 | 13.89° C | 52% | 1010.3 hPa | 0 mm | - | - | - |
| 1777991926 | 14.44° C | 51% | 1010.5 hPa | 0 mm | - | - | - |
| 1777991024 | 14.44° C | 49% | 1010.4 hPa | 0 mm | - | - | - |
| 1777989226 | 15.56° C | 44% | 1010.3 hPa | 0 mm | - | - | - |
| 1777988326 | 15.56° C | 44% | 1010.5 hPa | 0 mm | - | - | - |
| 1777987426 | 15.56° C | 44% | 1010.5 hPa | 0 mm | - | - | - |
| 1777986525 | 16.11° C | 44% | 1010.5 hPa | 0 mm | - | - | - |
| 1777985625 | 16.67° C | 42% | 1010.4 hPa | 0 mm | - | - | - |
| 1777984725 | 17.22° C | 42% | 1010.2 hPa | 0 mm | - | - | - |
| 1777983824 | 17.22° C | 41% | 1009.9 hPa | 0 mm | - | - | - |
| 1777982924 | 17.22° C | 40% | 1009.9 hPa | 0 mm | - | - | - |
| 1777982026 | 17.22° C | 50% | 1009.9 hPa | 0 mm | - | - | - |
| 1777981126 | 17.22° C | 50% | 1009.7 hPa | 0 mm | - | - | - |
| 1777980226 | 17.78° C | 45% | 1009.4 hPa | 0 mm | - | - | - |
| 1777979325 | 17.78° C | 41% | 1009.2 hPa | 0 mm | - | - | - |
* Rain latest hour (hover to see other rain measurements)
** Current wind speed in m/s (hover to see current wind gust speed)